DW8534 Weather Reports


Display with metric or nautical units.
time (UTC)temp
F
wind
direction
speed
MPH
gust
MPH
rain 1hr
in
rain 24hr
in
rain mn
in
humidity
%
barometer
mb
20260505180038 80 224 7.0 0.0 0.00 0.00 0.00 77 1001.8
20260505174541 79 209 8.0 0.0 0.00 0.00 0.00 77 1001.8
20260505173032 79 197 9.0 0.0 0.00 0.00 0.00 78 1001.5
20260505171532 79 159 7.0 0.0 0.00 0.00 0.00 80 1001.6
20260505170027 77 175 7.0 0.0 0.00 0.00 0.00 81 1001.7
20260505164527 77 190 9.0 0.0 0.00 0.00 0.00 81 1001.4
20260505163030 77 165 10.0 0.0 0.00 0.00 0.00 82 1001.4
20260505161520 76 192 8.0 0.0 0.00 0.00 0.00 84 1001.8
20260505153015 74 173 8.0 0.0 0.00 0.00 0.00 84 1001.6
20260505151518 74 176 8.0 0.0 0.00 0.00 0.00 85 1001.3
20260505124504 70 167 5.0 0.0 0.00 0.00 0.00 90 1000.7
20260505123004 69 179 5.0 0.0 0.00 0.00 0.00 90 1000.7
20260505121507 69 174 5.0 0.0 0.00 0.00 0.00 90 1000.3
20260505120003 69 165 5.0 0.0 0.00 0.00 0.00 90 1000.3
20260505114504 69 141 6.0 0.0 0.00 0.00 0.00 90 1000.3
20260505113007 69 164 7.0 0.0 0.00 0.00 0.00 90 1000.3
20260505111501 69 163 7.0 0.0 0.00 0.00 0.00 90 1000.2
20260505101558 69 179 7.0 0.0 0.00 0.00 0.00 89 1000.3
20260505100058 70 173 7.0 0.0 0.00 0.00 0.00 89 1000.2
20260505094554 70 159 7.0 0.0 0.00 0.00 0.00 88 1000.4
20260505093050 70 202 7.0 0.0 0.00 0.00 0.00 88 1000.6
20260505091548 70 175 8.0 0.0 0.00 0.00 0.00 89 1000.5
20260505090057 70 180 7.0 0.0 0.00 0.00 0.00 89 1000.6
20260505084550 69 142 7.0 0.0 0.00 0.00 0.00 89 1000.6
20260505083045 69 195 7.0 0.0 0.00 0.00 0.00 89 1000.5
20260505081545 69 169 6.0 0.0 0.00 0.00 0.00 89 1000.8
20260505080042 69 185 6.0 0.0 0.00 0.00 0.00 89 1001.2
20260505074538 69 132 7.0 0.0 0.00 0.00 0.00 88 1001.2
20260505073039 69 146 6.0 0.0 0.00 0.00 0.00 88 1001.5
20260505071533 70 174 6.0 0.0 0.00 0.00 0.00 87 1001.9
20260505070032 70 151 6.0 0.0 0.00 0.00 0.00 86 1002.0
20260505064530 71 132 6.0 0.0 0.00 0.00 0.00 86 1002.3
20260505063028 71 118 6.0 0.0 0.00 0.00 0.00 85 1002.4
20260505061527 71 184 7.0 0.0 0.00 0.00 0.00 84 1002.5
20260505060031 71 147 6.0 0.0 0.00 0.00 0.00 83 1002.4
20260505054533 72 163 7.0 0.0 0.00 0.00 0.00 82 1002.3
20260505053019 72 144 6.0 0.0 0.00 0.00 0.00 81 1002.5
20260505051516 72 186 7.0 0.0 0.00 0.00 0.00 80 1002.6
20260505041512 73 148 6.0 0.0 0.00 0.00 0.00 78 1002.9
20260505040012 72 156 5.0 0.0 0.00 0.00 0.00 79 1002.9
20260505034512 72 137 5.0 0.0 0.00 0.00 0.00 78 1002.7
20260505033018 73 150 6.0 0.0 0.00 0.00 0.00 77 1002.9
20260505031511 73 138 6.0 0.0 0.00 0.00 0.00 77 1002.9
20260505030010 73 112 5.0 0.0 0.00 0.00 0.00 77 1003.0
20260505024510 73 140 5.0 0.0 0.00 0.00 0.00 77 1002.7
20260505023011 73 157 5.0 0.0 0.00 0.00 0.00 77 1002.6
20260505021509 73 148 5.0 0.0 0.00 0.00 0.00 76 1002.5
20260505020009 73 122 5.0 0.0 0.00 0.00 0.00 75 1002.5
20260505014511 74 132 5.0 0.0 0.00 0.00 0.00 74 1002.6
20260505013008 74 158 6.0 0.0 0.00 0.00 0.00 74 1002.6
20260505011508 74 147 5.0 0.0 0.00 0.00 0.00 73 1002.6
20260505010007 75 155 5.0 0.0 0.00 0.00 0.00 72 1002.5
20260505004519 75 159 6.0 0.0 0.00 0.00 0.00 71 1002.6
20260505003005 75 157 7.0 0.0 0.00 0.00 0.00 71 1002.7
20260505001505 76 190 6.0 0.0 0.00 0.00 0.00 71 1003.0
20260505000006 76 165 8.0 0.0 0.00 0.00 0.00 70 1003.1
20260504234504 76 146 9.0 0.0 0.00 0.00 0.00 68 1003.1
20260504233004 77 144 8.0 0.0 0.00 0.00 0.00 68 1003.3
20260504231511 77 155 7.0 0.0 0.00 0.00 0.00 69 1003.3
20260504230002 77 144 8.0 0.0 0.00 0.00 0.00 68 1003.5
20260504224501 77 161 7.0 0.0 0.00 0.00 0.00 68 1003.6
20260504223002 78 152 9.0 0.0 0.00 0.00 0.00 66 1003.7
20260504221606 77 163 9.0 0.0 0.00 0.00 0.00 68 1003.6
20260504220059 77 169 8.0 0.0 0.00 0.00 0.00 66 1003.9
20260504214604 78 185 9.0 0.0 0.00 0.00 0.00 67 1004.0
20260504213104 78 165 9.0 0.0 0.00 0.00 0.00 67 1004.2
20260504211557 78 132 10.0 0.0 0.00 0.00 0.00 66 1004.4
20260504210104 78 152 8.0 0.0 0.00 0.00 0.00 64 1004.7
20260504204635 77 150 9.0 0.0 0.00 0.00 0.00 65 1004.8
20260504203054 78 212 13.0 0.0 0.00 0.00 0.00 64 1005.2
20260504201553 79 175 9.0 0.0 0.00 0.00 0.00 66 1005.6
20260504200055 78 160 11.0 0.0 0.00 0.00 0.00 65 1005.8
20260504194554 78 159 12.0 0.0 0.00 0.00 0.00 64 1006.3
20260504193049 78 161 10.0 0.0 0.00 0.00 0.00 64 1006.3
20260504191547 78 145 11.0 0.0 0.00 0.00 0.00 63 1006.4
20260504190054 77 162 9.0 0.0 0.00 0.00 0.00 66 1006.9
20260504184559 77 205 9.0 0.0 0.00 0.00 0.00 65 1006.8
20260504183053 76 156 10.0 0.0 0.00 0.00 0.00 65 1006.9
20260504181540 76 175 13.0 0.0 0.00 0.00 0.00 67 1007.4